Regional Weather Roundup
Issued by NWS Wakefield, VA

Home | Current Version | Previous Version | Text Only | Print | Product List | Glossary Off
Versions: 1 2 3 4 5 6 7 8 9 10 11 12 13 14 15 16 17 18 19 20 21 22 23 24 25 26 27 28 29 30 31 32 33 34 35 36 37 38 39 40 41 42 43 44 45 46 47 48 49 50

000
ASUS41 KAKQ 072115
RWRAKQ

REGIONAL WEATHER ROUNDUP
NATIONAL WEATHER SERVICE WAKEFIELD VA
500 PM EDT TUE JUL 07 2015

Note: "fair" indicates few or no clouds below 12,000 feet with no
significant weather and/or obstructions to visibility. * = Denotes
station may not report precipitation (e.g., rain,snow,etc.),
thunder or fog.

VAZ042-051-052>054-056-072200-
NORTHERN VIRGINIA

CITY           SKY/WX    TMP DP  RH WIND       PRES   REMARKS
WASH NATIONAL  MOSUNNY   90  67  46 S13G24    29.99F
DULLES         MOSUNNY   86  67  52 S13       30.00F
FORT BELVOIR   SUNNY     88  66  47 SW6       30.00F
QUANTICO       SUNNY     89  67  47 SW8       30.00F
FREDERICKSBRG* SUNNY     91  69  48 S12       30.00F HX  95
STAFFORD*      MOSUNNY   86  68  54 SW6       30.05S
WARRENTON      MOSUNNY   89  73  60 S5        30.00F HX  97
CULPEPER*      MOSUNNY   87  70  57 S6        30.01S
MANASSAS*      SUNNY     88  66  48 SW8       30.00F
LEESBURG*      SUNNY     90  70  51 S16       30.01S HX  95
WINCHESTER     MOSUNNY   88  70  55 S9        30.00F
FRONT ROYAL*   MOCLDY    86  72  62 S5        30.00S
LURAY*         FAIR      90  66  45 S12G21    30.01F
$$

VAZ048-049-060>072-079>083-072200-
CENTRAL AND SOUTH CENTRAL VIRGINIA

CITY           SKY/WX    TMP DP  RH WIND       PRES   REMARKS
RICHMOND       MOSUNNY   90  70  51 SW14      30.03F HX  95
CHESTERFIELD*  NOT AVBL
PETERSBURG*    SUNNY     90  75  61 SW7       30.05S HX 100
HANOVER        SUNNY     89  66  46 SW8G22    30.04F
TAPPAHANNOCK*  MOSUNNY   89  67  47 S7        30.03F
QUINTON*       NOT AVBL
CHARLOTTSVILLE SUNNY     87  68  52 S13G20    30.02F
GORDONSVILLE*  FAIR      88  70  55 S9G16     30.01F
ORANGE*        SUNNY     88  70  55 S8        30.03S
LOUISA*        SUNNY     88  70  55 S8        30.02F
BUMPASS*       FAIR      87  71  59 SW6       30.03S
FARMVILLE*     SUNNY     89  69  52 S8G17     30.03F
CREWE*         FAIR      87  67  50 SW5       30.05F
FORT PICKETT*  FAIR      87  71  58 S7G20     30.06S
CHASE CITY*    MOCLDY    90  73  57 CALM      30.07S HX  98
CLARKSVILLE*   FAIR      88  72  58 SW3       30.06S
SOUTH HILL*    PTSUNNY   88  72  59 SW5       30.12S
LAWRENCEVILLE* NOT AVBL
EMPORIA*         N/A     86  73  66 CALM      30.07S
$$

VAZ088>098-072200-
SOUTHEAST VIRGINIA

CITY           SKY/WX    TMP DP  RH WIND       PRES   REMARKS
NORFOLK        PTSUNNY   88  72  58 S9        30.04S
VIRGINIA BEACH PTSUNNY   90  71  53 SW13      30.04S HX  96
NORFOLK NAVAL  PTSUNNY   88  72  58 SW6       30.05F
WEST POINT*    SUNNY     91  67  45 SW8       30.05S
SALUDA*        FAIR      88  70  55 SW5       30.03S
NEWPORT NEWS   SUNNY     89  73  59 SW12      30.04F HX  97
LANGLEY AFB    SUNNY     89  73  59 SW14      30.02F HX  97
FORT EUSTIS    SUNNY     89  86  90 VRB7      30.02F HX 118
WILLIAMSBURG*  SUNNY     93  75  55 SW6       30.05S HX 104
HR EXEC AP*    MOCLDY    90  75  62 SW8       30.06S HX 100
FRANKLIN*      MOSUNNY   89  74  62 SW7       30.05S HX  98
WAKEFIELD      MOSUNNY   89  73  59 SW7       30.04F HX  97
$$

VAZ020-022-025-037-045-072200-
WEST CENTRAL AND SOUTHWEST VIRGINIA

CITY           SKY/WX    TMP DP  RH WIND       PRES   REMARKS
STAUNTON*      MOSUNNY   88  66  48 SW13      30.06F
WAYNESBORO*    FAIR      84  67  56 SW8G16    30.07F
HOT SPRINGS VA MOSUNNY   77  62  61 SW7G16    30.20S
LYNCHBURG      SUNNY     85  68  56 SW7       30.08F
DANVILLE       SUNNY     88  70  55 VRB6      30.06F
SOUTH BOSTON*  FAIR      88  70  55 MISG      30.06F
MARTINSVILLE   SUNNY     89  68  49 SW3       30.10S
ROANOKE        MOSUNNY   86  69  56 S9        30.08F
BLACKSBURG     MOSUNNY   83  68  59 S5        30.15F
DUBLIN*        MOSUNNY   84  67  56 SW8       30.14S
MARION*        SUNNY     82  65  55 SW14G21   30.18F
HILLSVILLE*    MOSUNNY   80  68  66 S9        30.17S
RICHLANDS*     FAIR      80  67  64 SW13      30.17S
WISE*          PTSUNNY   81  64  57 S13       30.17F
ABINGDON*      PTSUNNY   84  66  54 W12       30.15S
$$

MDZ021>025-VAZ099-100-072200-
SOUTHERN MARYLAND AND THE DELMARVA PENINSULA

CITY           SKY/WX    TMP DP  RH WIND       PRES   REMARKS
PATUXENT RIVER MOSUNNY   88  67  49 SW14      30.01S
BAY BRIDGE APT   N/A     88  66  48 S8        29.99S
LEONARDTOWN    SUNNY     88  64  45 SW9G16    30.03S
DOVER          SUNNY     88  69  53 SW12      29.97F
GEORGETOWN     SUNNY     87  71  58 SW13      30.01F
EASTON         MOSUNNY   90  72  55 SW10      30.03F HX  96
CAMBRIDGE      MOSUNNY   88  70  55 SW9       30.00S
SALISBURY      MOSUNNY   86  73  65 S13       30.01F
OCEAN CITY     SUNNY     83  74  74 S12       30.02F
WALLOPS ISLAND SUNNY     85  77  77 S15       30.03F HX  95
ACCOMACK*      SUNNY     88  75  66 SW8       30.03F HX  97
$$

NCZ012>017-030>032-072200-
NORTH CENTRAL AND EASTERN NORTH CAROLINA

CITY           SKY/WX    TMP DP  RH WIND       PRES   REMARKS
ROANOKE RAPIDS LGT RAIN  77  70  78 W7G13     30.06F
RALEIGH        MOSUNNY   90  70  51 SW10      30.07F HX  95
ELIZABETH CITY SUNNY     89  72  56 S14       30.06F HX  96
AHOSKIE*       MOSUNNY   89  71  55 S5        30.06R HX  95
EDENTON*         N/A     90  73  57 S9        30.06F HX  97
CURRITUCK*     SUNNY     90  69  49 S7        30.06F
KILL DEVIL HLS SUNNY     90  75  61 S9        30.07S HX  99
MANTEO         SUNNY     85  76  73 S17       30.08S HX  95
CAPE HATTERAS  SUNNY     82  74  76 SW14      30.12S
TARBORO*         N/A     93  69  45 SW7       30.07R HX  98
GOLDSBORO      MOSUNNY   92  69  47 SW9       30.05F HX  97
WASHINGTON     MOSUNNY   89  71  54 S7        30.07S HX  95
GREENVILLE     SUNNY     91  72  52 SW8       30.08S HX  98
NEW BERN       MOSUNNY   88  73  61 S13G18    30.10S HX  95
WILMINGTON     MOSUNNY   88  71  57 S18       30.11S
$$

VAZ048-072200-
ELSEWHERE

CITY           SKY/WX    TMP DP  RH WIND       PRES   REMARKS
HARRISBURG PA  MOSUNNY   87  67  51 SW7       29.96S
BALTIMORE      MOSUNNY   88  68  51 SW9       29.98S
ANNAPOLIS      MOSUNNY   87  68  52 VRB7      29.98F
ANDREWS AFB    SUNNY     87  67  50 SW15      30.00S
PHILADELPHIA   MOSUNNY   90  67  46 SW15      29.96F
HENDERSON NC   MOSUNNY   88  66  47 SW8       30.07S
GREENSBORO     PTSUNNY   88  68  51 S9        30.07F
ROCKY MOUNT    MOSUNNY   93  70  46 S9G17     30.06F HX  99
$$

VAZ100-072200-
MARINE

STATION/POSITION TIME  TEMP    WIND        PRES    WAVE   SWELL
                       AIR SEA DIR/SP/G            HT/PER HT/PER
                 (UTC) (F)     (DEG/KT/KT) (MB)    (FT/S) (FT/S)
BRANDYWINE LGT   2000   83 75  210/  7/  8 1015.9F
CAPE MAY NJ      2000   81 80  170/  8/ 10 1015.7F
LEWES DE         2018   89 75  250/  8/ 13 1015.7F
15NM E FENWICK I 2050   78 76              1016.1F   4/ 5
OCEAN-CITY-INLET 2000   77 73  210/ 14/ 17 1016.5F
WACHAPREAGUE VA  2000   85 86  200/ 10/ 13 1017.4F
GOOSES REEF MD   2100   86 81  240/  8/ 12 1016.9F
COVE POINT MD    2000   85     230/ 14/ 16 1016.9F
SOLOMONS ISLAND  2000      81                N/A
BISHOPS HEAD MD  2018   84     200/ 14/ 17 1016.3F
PINEY POINT MD   2000          260/  7/ 11   N/A
CAMBRIDGE MD     2000   87 80  190/  5/ 12 1015.9F
LEWISETTA VA     2000   87 84  240/ 12/ 14 1016.4F
RAPPAHANNOCK LGT 2000          190/  9/ 10 1017.8F
STINGRAY PT      2100   87 82  220/ 12/ 14 1016.8F   1/ 2
YORK RVR RNG VA  2000   87     250/ 11/ 13 1016.8F
YORKTOWN VA      2000   87 80  230/  7/ 10 1017.0F
JAMESTOWN VA     2100   87 85  240/  8/ 10   N/A
DOMINION TERM VA 2000   87     260/ 10/ 11 1017.4F
KIPTOPEKE VA     2000      85  190/  4/  5   N/A
CHES BAY BRIDGE  2000   84 77  270/  6/  9 1017.1F
CAPE HENRY VA    2000   84      20/  7/ 10   N/A
CHESAPEAKE LGHT  2000   81     170/ 18/ 19 1018.0F
WILLOUBY STN VA  2000   85     250/  9/ 10 1018.3F
CAPE HENRY BUOY  2028      80                N/A     3/ 9   2/14
1ST LANDING BUOY 2100      80              1016.8F
CAPE CHARLES BUO 2026      79                N/A     2/ 9   2/ 9
OFFSHORE WE BUOY 2011      78                N/A     3/ 8   2/ 8
64NM E OF VA BCH 2050   79 78  190/ 14/ 16 1018.0    3/ 8   2/ 8
DUCK PIER NC     2000   87 74  210/  8/ 13   N/A
44100 DUCK FRF   2024      80                N/A     3/14   2/14
44056 DUCK FRF   2011      77                N/A     2/12   2/12
OREGON INLET NC  2018   82 85  190/ 18/ 21 1018.9F
HATTERAS NC      2000   82 81  200/ 11/ 16 1019.6F
DIAMOND SHLS NC  2050   82 84  210/ 17/ 19 1019.5F   3/ 8   2/ 8
CAPE LOOKOUT NC  2100   82     200/ 14/ 17 1019.6F
$$



USA.gov is the U.S. government's official web portal to all federal, state and local government web resources and services.